Location: El Mouella
(16.4949°N, 9.1594°W)
Time: 21:16:17
(UTC+00:00)

DNEPR-1 R/B - Pass Details

Date: 02 June 2020
Orbit: 566 x 1355 km, 64.6° (Epoch: 05 July)

Event Time Altitude Azimuth Distance (km) Brightness Sun altitude
Rises 19:21:00 0° 344° (NNW) 3,371 8.0 -4.0°
Reaches altitude 10° 19:23:45 10° 350° (N) 2,311 7.0 -4.6°
Maximum altitude 19:28:41 45° 63° (ENE) 915 4.2 -5.7°
Drops below altitude 10° 19:32:53 10° 137° (SE) 1,965 5.5 -6.6°
Enters shadow 19:33:44 - 140° (SE) 2,288 5.9 -6.8°
